Location: Newark
(13.6797°N, 8.5297°E)
Time: 00:32:46
(UTC+00:00)

SR - Pass Details

Date: 26 January 2020
Orbit: 575 x 880 km, 66.7° (Epoch: 24 February)

Event Time Altitude Azimuth Distance (km) Brightness Sun altitude
Rises 07:06:30 0° 347° (NNW) 3,209 ? 15.6°
Reaches altitude 10° 07:09:03 10° 352° (N) 2,232 ? 16.2°
Maximum altitude 07:13:57 50° 67° (ENE) 876 ? 17.3°
Drops below altitude 10° 07:18:26 10° 143° (SE) 2,042 ? 18.2°
Sets 07:20:40 0° 148° (SSE) 2,909 ? 18.7°
